Penn Yan, NY

7:05 AM EDT on March 28, 2017 (GMT -0400)
Penn Yan

Weather History for KPEO - September, 2013

Change the Weather History Date:

Sunday, September 29, 2013

  Actual Average (KITH) Record (KITH)
Temperature  
Mean Temperature 60 °F -  
Max Temperature 73 °F 63 °F 83 °F (1945)
Min Temperature 46 °F 42 °F 28 °F (1957)
Degree Days  
Heating Degree Days 6    
Growing Degree Days 10 (Base 50)    
Moisture  
Dew Point 48 °F    
Average Humidity 70    
Maximum Humidity 93    
Minimum Humidity 40    
Precipitation  
Precipitation 0.00 in - - ()
Sea Level Pressure  
Sea Level Pressure 30.12 in    
Wind  
Wind Speed 6 mph (SSW)    
Max Wind Speed 15 mph    
Max Gust Speed 21 mph    
Visibility 9 miles    
Events      
Averages and records for this station are not official NWS values.
T = Trace of Precipitation, MM = Missing Value Source: NWS Daily Summary

Daily Weather History Graph

Daily Weather History Graph

Search for Another Location

Airport or City:

Trip Planner

Search our weather history database for the weather conditions in past years. The results will help you decide how hot, cold, wet, or windy it might be!

Date:

Astronomy

Sep. 29, 2013 Rise Set
Actual Time 7:03 AM EDT 6:52 PM EDT
Civil Twilight 6:35 AM EDT 7:20 PM EDT
Nautical Twilight 6:02 AM EDT 7:53 PM EDT
Astronomical Twilight 5:29 AM EDT 8:26 PM EDT
Moon 1:36 AM EDT (9/29) 3:52 PM EDT (9/29)
Length of Visible Light 12h 45m
Length of Day
11h 49m
Waning Crescent, 27% of the Moon is Illuminated
Sep 29
Waning Crescent
Oct 4
New
Oct 11
First Quarter
Oct 18
Full
Oct 26
Last Quarter

Hourly Weather History & Observations

Time (EDT) Temp. Windchill Dew Point Humidity Pressure Visibility Wind Dir Wind Speed Gust Speed Precip Events Conditions
12:53 AM 48.0 °F - 46.0 °F 93% 30.21 in 9.0 mi South 5.8 mph - N/A   Clear
1:53 AM 46.9 °F - 45.0 °F 93% 30.21 in 8.0 mi SSW 3.5 mph - N/A   Clear
2:53 AM 50.0 °F - 46.9 °F 89% 30.19 in 9.0 mi SW 3.5 mph - N/A   Clear
3:53 AM 46.0 °F 44.8 °F 44.1 °F 93% 30.17 in 6.0 mi South 3.5 mph - N/A   Clear
4:53 AM 46.9 °F - 45.0 °F 93% 30.17 in 4.0 mi South 3.5 mph - N/A   Clear
5:53 AM 50.0 °F - 46.9 °F 89% 30.17 in 6.0 mi SSW 3.5 mph - N/A   Clear
6:53 AM 50.0 °F - 48.0 °F 93% 30.17 in 10.0 mi SSW 5.8 mph - N/A   Clear
7:53 AM 51.1 °F - 48.9 °F 92% 30.18 in 6.0 mi SW 4.6 mph - N/A   Clear
8:53 AM 55.0 °F - 50.0 °F 83% 30.18 in 10.0 mi South 8.1 mph - N/A   Clear
9:53 AM 60.1 °F - 48.9 °F 67% 30.17 in 10.0 mi SSW 10.4 mph - N/A   Clear
10:53 AM 64.9 °F - 48.0 °F 54% 30.15 in 10.0 mi SSW 12.7 mph 18.4 mph N/A   Clear
11:53 AM 66.9 °F - 46.9 °F 49% 30.14 in 10.0 mi SSW 15.0 mph 20.7 mph N/A   Clear
12:53 PM 69.1 °F - 48.9 °F 49% 30.12 in 10.0 mi SSW 11.5 mph - N/A   Clear
1:53 PM 71.1 °F - 48.9 °F 45% 30.09 in 10.0 mi SW 10.4 mph - N/A   Clear
2:53 PM 73.0 °F - 48.0 °F 41% 30.07 in 10.0 mi SW 9.2 mph - N/A   Clear
3:53 PM 72.0 °F - 46.9 °F 41% 30.06 in 10.0 mi SSW 8.1 mph - N/A   Clear
4:53 PM 72.0 °F - 46.0 °F 40% 30.05 in 10.0 mi SW 5.8 mph - N/A   Clear
5:53 PM 69.1 °F - 48.0 °F 47% 30.05 in 10.0 mi SSE 5.8 mph - N/A   Clear
6:53 PM 60.1 °F - 48.9 °F 67% 30.05 in 10.0 mi SE 3.5 mph - N/A   Clear
7:53 PM 53.1 °F - 46.9 °F 80% 30.06 in 10.0 mi South 4.6 mph - N/A   Clear
8:53 PM 57.0 °F - 46.9 °F 69% 30.06 in 10.0 mi SSW 3.5 mph - N/A   Clear
9:53 PM 59.0 °F - 48.9 °F 69% 30.07 in 8.0 mi SSW 4.6 mph - N/A   Clear
10:53 PM 57.9 °F - 48.9 °F 72% 30.06 in 10.0 mi SW 6.9 mph - N/A   Clear
11:53 PM 57.9 °F - 48.9 °F 72% 30.05 in 10.0 mi SSW 6.9 mph - N/A   Clear